This is the latest recevied weather packets stored in our database for station/object W4MLN-1. If no packets are shown the sender has not sent any weather packets the latest 10 day(s).
| Time | Temp. | Humidity | Pressure | Rain* | Wind** | Luminosity | Snow |
|---|---|---|---|---|---|---|---|
| 1777827993 | 11.11° C | 35% | 1018 hPa | 0 mm | - | 1022 W/m² | - |
| 1777827692 | 11.11° C | 42% | 1018 hPa | 0 mm | - | 1018 W/m² | - |
| 1777827392 | 11.11° C | 40% | 1018.2 hPa | 0 mm | - | 1015 W/m² | - |
| 1777827092 | 10.56° C | 42% | 1018.3 hPa | 0 mm | - | 1011 W/m² | - |
| 1777826792 | 10° C | 39% | 1018.2 hPa | 0 mm | - | 1010 W/m² | - |
| 1777826489 | 10° C | 40% | 1018.3 hPa | 0 mm | - | 1005 W/m² | - |
| 1777826190 | 10° C | 38% | 1018.3 hPa | 0 mm | - | 1001 W/m² | - |
| 1777825886 | 10.56° C | 39% | 1018.5 hPa | 0 mm | - | 993 W/m² | - |
| 1777825587 | 10° C | 41% | 1018.5 hPa | 0 mm | - | 987 W/m² | - |
| 1777825286 | 10° C | 39% | 1018.5 hPa | 0 mm | - | 981 W/m² | - |
| 1777824987 | 10° C | 36% | 1018.5 hPa | 0 mm | - | 973 W/m² | - |
| 1777824687 | 10.56° C | 37% | 1018.4 hPa | 0 mm | - | 967 W/m² | - |
| 1777824387 | 10° C | 38% | 1018.6 hPa | 0 mm | - | 959 W/m² | - |
| 1777824088 | 10° C | 38% | 1018.6 hPa | 0 mm | - | 950 W/m² | - |
| 1777823787 | 10° C | 38% | 1018.6 hPa | 0 mm | - | 940 W/m² | - |
| 1777823488 | 10° C | 37% | 1018.8 hPa | 0 mm | - | 928 W/m² | - |
| 1777823187 | 9.44° C | 39% | 1018.8 hPa | 0 mm | - | 916 W/m² | - |
| 1777822885 | 9.44° C | 41% | 1018.9 hPa | 0 mm | - | 913 W/m² | - |
| 1777822584 | 9.44° C | 40% | 1018.8 hPa | 0 mm | - | 898 W/m² | - |
| 1777822282 | 8.89° C | 45% | 1018.8 hPa | 0 mm | - | 886 W/m² | - |
| 1777821982 | 8.89° C | 42% | 1018.6 hPa | 0 mm | - | 875 W/m² | - |
| 1777821681 | 8.33° C | 42% | 1018.5 hPa | 0 mm | - | 862 W/m² | - |
| 1777821382 | 8.33° C | 42% | 1018.6 hPa | 0 mm | - | 851 W/m² | - |
| 1777821083 | 8.33° C | 43% | 1018.7 hPa | 0 mm | - | 838 W/m² | - |
| 1777820782 | 7.78° C | 42% | 1018.7 hPa | 0 mm | - | 825 W/m² | - |
* Rain latest hour (hover to see other rain measurements)
** Current wind speed in m/s (hover to see current wind gust speed)